Location: Hillern
(53.0557°N, 9.8577°E)
Time: 07:13:03
(UTC+00:00)

Sich 1 - Pass Details

Date: 19 May 2025
Orbit: 574 x 603 km, 82.5° (Epoch: 22 June)

Event Time Altitude Azimuth Distance (km) Brightness Sun altitude
Rises 22:30:27 0° 348° (NNW) 2,842 8.3 -16.3°
Reaches altitude 10° 22:32:40 10° 348° (NNW) 1,931 7.0 -16.3°
Maximum altitude 22:36:56 85° 262° (W) 596 2.9 -16.4°
Enters shadow 22:38:48 33° 174° (S) 995 3.5 -16.5°
